Location: Hradec Kralove
(50.2170°N, 15.8330°E)
Time: 07:39:06
(UTC+01:00)

Tiangong - Visible Passes

Search period start: 07 December 2022 00:00
Search period end: 17 December 2022 00:00
Orbit: 386 x 393 km, 41.5° (Epoch: 06 December)

Date Brightness Start Highest point End Pass type
(mag) Time Alt. Az. Time Alt. Az. Time Alt. Az.
07 Dec 0.4 17:46:23 10° SW 17:48:26 16° S 17:50:06 12° SSE visible
08 Dec 0.5 16:48:17 10° SW 16:50:27 17° S 16:52:38 10° SE visible
08 Dec 0.9 18:26:01 10° SSW 18:26:37 10° SSW 18:27:13 10° S visible
09 Dec 0.7 17:27:03 10° SW 17:28:40 13° SSW 17:30:16 10° SSE visible
10 Dec 0.7 16:28:38 10° SW 16:30:37 15° S 16:32:37 10° SSE visible
